Wetterdaten: Dienstag, 23.07.2013
Datum Zeit Temperatur Luftfeuchte Luftdruck Regen Wind Richtung Richtung Taupunkt Windchill Windben
23.07.2013 00:00 15,1 C 70 % 1020,9 hPa 0,0 l/m 0,0 km/h (0 Bft) O-SO 112 9,7 C 14,9 C 0,0 km/h (0 Bft)
23.07.2013 00:05 15,1 C 70 % 1020,9 hPa 0,0 l/m 0,0 km/h (0 Bft) O-SO 112 9,7 C 14,8 C 0,0 km/h (0 Bft)
23.07.2013 00:10 15,1 C 71 % 1020,9 hPa 0,0 l/m 0,0 km/h (0 Bft) O 90 9,9 C 14,6 C 0,0 km/h (0 Bft)
23.07.2013 00:15 15,1 C 71 % 1020,9 hPa 0,0 l/m 0,0 km/h (0 Bft) O-NO 67 9,9 C 14,5 C 0,0 km/h (0 Bft)
23.07.2013 00:20 14,6 C 72 % 1020,9 hPa 0,0 l/m 0,0 km/h (0 Bft) O 90 9,6 C 14,2 C 0,0 km/h (0 Bft)
23.07.2013 00:25 14,4 C 73 % 1020,9 hPa 0,0 l/m 0,0 km/h (0 Bft) O 90 9,6 C 14,1 C 0,0 km/h (0 Bft)
23.07.2013 00:30 14,2 C 74 % 1020,9 hPa 0,0 l/m 0,0 km/h (0 Bft) O 90 9,6 C 13,9 C 0,0 km/h (0 Bft)
23.07.2013 00:35 14,0 C 74 % 1020,9 hPa 0,0 l/m 0,0 km/h (0 Bft) O 90 9,4 C 13,7 C 0,0 km/h (0 Bft)
23.07.2013 00:40 14,1 C 75 % 1020,9 hPa 0,0 l/m 0,0 km/h (0 Bft) O-NO 67 9,7 C 13,5 C 0,0 km/h (0 Bft)
23.07.2013 00:45 14,1 C 75 % 1020,9 hPa 0,0 l/m 0,0 km/h (0 Bft) O-NO 67 9,7 C 13,5 C 0,0 km/h (0 Bft)
23.07.2013 00:50 14,0 C 75 % 1020,9 hPa 0,0 l/m 0,0 km/h (0 Bft) O 90 9,6 C 13,5 C 0,0 km/h (0 Bft)
23.07.2013 00:55 14,0 C 75 % 1020,9 hPa 0,0 l/m 0,0 km/h (0 Bft) O-SO 112 9,6 C 13,5 C 0,0 km/h (0 Bft)
23.07.2013 01:00 14,1 C 76 % 1020,9 hPa 0,0 l/m 0,3 km/h (0 Bft) O 90 9,9 C 13,5 C 0,0 km/h (0 Bft)
23.07.2013 01:05 14,1 C 75 % 1020,6 hPa 0,0 l/m 0,3 km/h (0 Bft) O 90 9,7 C 13,5 C 0,0 km/h (0 Bft)
23.07.2013 01:10 14,1 C 76 % 1020,6 hPa 0,0 l/m 0,5 km/h (0 Bft) O-SO 112 9,9 C 13,5 C 0,0 km/h (0 Bft)
23.07.2013 01:15 14,1 C 76 % 1020,6 hPa 0,0 l/m 0,5 km/h (0 Bft) O 90 9,9 C 13,6 C 0,0 km/h (0 Bft)
23.07.2013 01:20 13,9 C 77 % 1020,6 hPa 0,0 l/m 0,2 km/h (0 Bft) O 90 9,9 C 13,5 C 0,0 km/h (0 Bft)
23.07.2013 01:25 13,8 C 76 % 1020,6 hPa 0,0 l/m 0,0 km/h (0 Bft) O 90 9,6 C 13,4 C 0,0 km/h (0 Bft)
23.07.2013 01:30 13,8 C 76 % 1020,6 hPa 0,0 l/m 0,0 km/h (0 Bft) O 90 9,6 C 13,2 C 0,0 km/h (0 Bft)
23.07.2013 01:35 13,7 C 77 % 1020,6 hPa 0,0 l/m 0,0 km/h (0 Bft) O-NO 67 9,7 C 13,2 C 0,0 km/h (0 Bft)
23.07.2013 01:40 13,4 C 76 % 1020,6 hPa 0,0 l/m 0,0 km/h (0 Bft) O-NO 67 9,3 C 13,2 C 0,0 km/h (0 Bft)
23.07.2013 01:45 13,3 C 77 % 1020,4 hPa 0,0 l/m 0,0 km/h (0 Bft) SO 135 9,4 C 13,1 C 0,0 km/h (0 Bft)
23.07.2013 01:50 13,2 C 77 % 1020,4 hPa 0,0 l/m 0,0 km/h (0 Bft) O-SO 112 9,3 C 12,9 C 0,0 km/h (0 Bft)
23.07.2013 01:55 13,3 C 78 % 1020,4 hPa 0,0 l/m 0,0 km/h (0 Bft) O-SO 112 9,5 C 12,9 C 0,0 km/h (0 Bft)
23.07.2013 02:00 13,1 C 77 % 1020,4 hPa 0,0 l/m 0,0 km/h (0 Bft) S-SW 202 9,2 C 12,9 C 0,0 km/h (0 Bft)
23.07.2013 02:05 13,1 C 77 % 1020,6 hPa 0,0 l/m 0,0 km/h (0 Bft) O-SO 112 9,2 C 12,8 C 0,0 km/h (0 Bft)
23.07.2013 02:10 13,2 C 78 % 1020,6 hPa 0,0 l/m 0,0 km/h (0 Bft) O 90 9,4 C 12,8 C 0,0 km/h (0 Bft)
23.07.2013 02:15 13,4 C 79 % 1020,6 hPa 0,0 l/m 0,2 km/h (0 Bft) W-SW 247 9,8 C 12,9 C 0,0 km/h (0 Bft)
23.07.2013 02:20 13,3 C 79 % 1020,6 hPa 0,0 l/m 0,2 km/h (0 Bft) W-SW 247 9,7 C 13,0 C 0,0 km/h (0 Bft)
23.07.2013 02:25 13,2 C 78 % 1020,2 hPa 0,0 l/m 0,0 km/h (0 Bft) W-SW 247 9,4 C 13,0 C 0,0 km/h (0 Bft)
23.07.2013 02:30 13,3 C 79 % 1020,2 hPa 0,0 l/m 0,0 km/h (0 Bft) O-NO 67 9,7 C 13,0 C 0,0 km/h (0 Bft)
23.07.2013 02:35 13,4 C 78 % 1020,2 hPa 0,0 l/m 0,0 km/h (0 Bft) S 180 9,6 C 13,0 C 0,0 km/h (0 Bft)
23.07.2013 02:40 13,6 C 78 % 1020,2 hPa 0,0 l/m 0,0 km/h (0 Bft) O-SO 112 9,8 C 13,2 C 0,0 km/h (0 Bft)
23.07.2013 02:45 13,5 C 78 % 1020,1 hPa 0,0 l/m 0,0 km/h (0 Bft) O-SO 112 9,7 C 13,2 C 0,0 km/h (0 Bft)
23.07.2013 02:50 13,4 C 78 % 1020,1 hPa 0,0 l/m 0,0 km/h (0 Bft) S 180 9,6 C 13,1 C 0,0 km/h (0 Bft)
23.07.2013 02:55 13,2 C 78 % 1020,1 hPa 0,0 l/m 0,0 km/h (0 Bft) O 90 9,4 C 13,0 C 0,0 km/h (0 Bft)
23.07.2013 03:00 12,9 C 78 % 1020,1 hPa 0,0 l/m 0,0 km/h (0 Bft) S-SO 157 9,2 C 12,7 C 0,0 km/h (0 Bft)
23.07.2013 03:05 12,7 C 78 % 1020,2 hPa 0,0 l/m 0,0 km/h (0 Bft) O-NO 67 9,0 C 12,6 C 0,0 km/h (0 Bft)
23.07.2013 03:10 12,7 C 79 % 1020,2 hPa 0,0 l/m 0,0 km/h (0 Bft) O-NO 67 9,2 C 12,4 C 0,0 km/h (0 Bft)
23.07.2013 03:15 12,7 C 79 % 1020,2 hPa 0,0 l/m 0,0 km/h (0 Bft) O-NO 67 9,2 C 12,3 C 0,0 km/h (0 Bft)
23.07.2013 03:20 12,8 C 79 % 1020,2 hPa 0,0 l/m 0,0 km/h (0 Bft) O-NO 67 9,2 C 12,2 C 0,0 km/h (0 Bft)
23.07.2013 03:25 12,6 C 79 % 1020,1 hPa 0,0 l/m 0,0 km/h (0 Bft) O-NO 67 9,1 C 12,1 C 0,0 km/h (0 Bft)
23.07.2013 03:30 12,6 C 79 % 1020,1 hPa 0,0 l/m 0,0 km/h (0 Bft) O-NO 67 9,1 C 12,2 C 0,0 km/h (0 Bft)
23.07.2013 03:35 12,6 C 79 % 1020,1 hPa 0,0 l/m 0,0 km/h (0 Bft) O-NO 67 9,1 C 12,2 C 0,0 km/h (0 Bft)
23.07.2013 03:40 12,5 C 79 % 1020,1 hPa 0,0 l/m 0,0 km/h (0 Bft) O-NO 67 9,0 C 12,0 C 0,0 km/h (0 Bft)
23.07.2013 03:45 12,5 C 79 % 1020,0 hPa 0,0 l/m 0,0 km/h (0 Bft) S 180 9,0 C 12,0 C 0,0 km/h (0 Bft)
23.07.2013 03:50 12,5 C 80 % 1020,0 hPa 0,0 l/m 0,0 km/h (0 Bft) W-SW 247 9,1 C 12,1 C 0,0 km/h (0 Bft)
23.07.2013 03:55 12,8 C 81 % 1020,0 hPa 0,0 l/m 0,0 km/h (0 Bft) W-SW 247 9,6 C 12,3 C 0,0 km/h (0 Bft)
23.07.2013 04:00 12,8 C 81 % 1020,0 hPa 0,0 l/m 0,3 km/h (0 Bft) W-SW 247 9,6 C 12,4 C 0,0 km/h (0 Bft)
23.07.2013 04:05 12,7 C 81 % 1019,8 hPa 0,0 l/m 0,3 km/h (0 Bft) SW 225 9,5 C 12,4 C 0,0 km/h (0 Bft)
23.07.2013 04:10 12,3 C 80 % 1019,8 hPa 0,0 l/m 0,0 km/h (0 Bft) W-SW 247 8,9 C 12,3 C 0,0 km/h (0 Bft)
23.07.2013 04:15 12,4 C 81 % 1019,8 hPa 0,0 l/m 0,0 km/h (0 Bft) W-SW 247 9,2 C 12,1 C 0,0 km/h (0 Bft)
23.07.2013 04:20 12,6 C 81 % 1019,8 hPa 0,0 l/m 0,0 km/h (0 Bft) W-SW 247 9,4 C 12,0 C 0,0 km/h (0 Bft)
23.07.2013 04:25 12,4 C 81 % 1019,7 hPa 0,0 l/m 0,0 km/h (0 Bft) S-SW 202 9,2 C 12,0 C 0,0 km/h (0 Bft)
23.07.2013 04:30 12,4 C 82 % 1019,7 hPa 0,0 l/m 0,0 km/h (0 Bft) W-SW 247 9,4 C 11,9 C 0,0 km/h (0 Bft)
23.07.2013 04:35 12,7 C 82 % 1019,7 hPa 0,0 l/m 0,0 km/h (0 Bft) S 180 9,7 C 12,0 C 0,0 km/h (0 Bft)
23.07.2013 04:40 12,8 C 82 % 1019,7 hPa 0,0 l/m 0,0 km/h (0 Bft) W-SW 247 9,8 C 12,0 C 0,0 km/h (0 Bft)
23.07.2013 04:45 12,6 C 81 % 1019,4 hPa 0,0 l/m 0,0 km/h (0 Bft) W-SW 247 9,4 C 12,1 C 0,0 km/h (0 Bft)
23.07.2013 04:50 12,7 C 83 % 1019,4 hPa 0,0 l/m 0,0 km/h (0 Bft) O-NO 67 9,9 C 12,1 C 0,0 km/h (0 Bft)
23.07.2013 04:55 12,7 C 82 % 1019,4 hPa 0,0 l/m 0,2 km/h (0 Bft) O 90 9,7 C 12,0 C 0,0 km/h (0 Bft)
23.07.2013 05:00 12,8 C 82 % 1019,4 hPa 0,0 l/m 0,3 km/h (0 Bft) O-NO 67 9,8 C 12,0 C 0,0 km/h (0 Bft)
23.07.2013 05:05 12,4 C 81 % 1019,4 hPa 0,0 l/m 0,2 km/h (0 Bft) O-NO 67 9,2 C 12,0 C 0,0 km/h (0 Bft)
23.07.2013 05:10 12,1 C 82 % 1019,4 hPa 0,0 l/m 0,0 km/h (0 Bft) O-NO 67 9,1 C 11,8 C 0,0 km/h (0 Bft)
23.07.2013 05:15 12,1 C 83 % 1019,4 hPa 0,0 l/m 0,0 km/h (0 Bft) NO 45 9,3 C 11,7 C 0,0 km/h (0 Bft)
23.07.2013 05:20 12,3 C 83 % 1019,4 hPa 0,0 l/m 0,6 km/h (0 Bft) SO 135 9,5 C 11,7 C 1,9 km/h (1 Bft)
23.07.2013 05:25 12,3 C 83 % 1019,5 hPa 0,0 l/m 0,8 km/h (0 Bft) O 90 9,5 C 11,7 C 0,0 km/h (0 Bft)
23.07.2013 05:30 12,1 C 82 % 1019,5 hPa 0,0 l/m 0,2 km/h (0 Bft) O 90 9,1 C 11,6 C 0,0 km/h (0 Bft)
23.07.2013 05:35 11,9 C 83 % 1019,5 hPa 0,0 l/m 0,0 km/h (0 Bft) O 90 9,1 C 11,5 C 0,0 km/h (0 Bft)
23.07.2013 05:40 12,0 C 84 % 1019,5 hPa 0,0 l/m 0,0 km/h (0 Bft) O-NO 67 9,4 C 11,3 C 0,0 km/h (0 Bft)
23.07.2013 05:45 12,1 C 84 % 1019,5 hPa 0,0 l/m 0,0 km/h (0 Bft) O-NO 67 9,5 C 11,3 C 0,0 km/h (0 Bft)
23.07.2013 05:50 11,9 C 84 % 1019,5 hPa 0,0 l/m 0,0 km/h (0 Bft) O-NO 67 9,3 C 11,3 C 0,0 km/h (0 Bft)
23.07.2013 05:55 11,9 C 84 % 1019,5 hPa 0,0 l/m 0,0 km/h (0 Bft) O-NO 67 9,3 C 11,3 C 0,0 km/h (0 Bft)
23.07.2013 06:00 11,9 C 84 % 1019,5 hPa 0,0 l/m 0,0 km/h (0 Bft) NO 45 9,3 C 11,3 C 0,0 km/h (0 Bft)
23.07.2013 06:05 11,8 C 84 % 1019,5 hPa 0,0 l/m 0,0 km/h (0 Bft) O-NO 67 9,2 C 11,4 C 0,0 km/h (0 Bft)
23.07.2013 06:10 11,8 C 84 % 1019,5 hPa 0,0 l/m 0,0 km/h (0 Bft) O 90 9,2 C 11,7 C 0,0 km/h (0 Bft)
23.07.2013 06:15 11,9 C 84 % 1019,5 hPa 0,0 l/m 0,0 km/h (0 Bft) O-NO 67 9,3 C 12,4 C 0,0 km/h (0 Bft)
23.07.2013 06:20 12,0 C 84 % 1019,5 hPa 0,0 l/m 0,0 km/h (0 Bft) NO 45 9,4 C 13,3 C 0,0 km/h (0 Bft)
23.07.2013 06:25 12,5 C 84 % 1019,5 hPa 0,0 l/m 0,2 km/h (0 Bft) O 90 9,9 C 13,2 C 1,6 km/h (1 Bft)
23.07.2013 06:30 14,7 C 82 % 1019,5 hPa 0,0 l/m 0,3 km/h (0 Bft) S-SW 202 11,7 C 13,0 C 0,0 km/h (0 Bft)
23.07.2013 06:35 14,8 C 81 % 1019,5 hPa 0,0 l/m 0,2 km/h (0 Bft) O-SO 112 11,6 C 12,9 C 0,0 km/h (0 Bft)
23.07.2013 06:40 14,0 C 79 % 1019,5 hPa 0,0 l/m 0,0 km/h (0 Bft) NO 45 10,4 C 13,4 C 0,0 km/h (0 Bft)
23.07.2013 06:45 14,0 C 79 % 1019,4 hPa 0,0 l/m 0,0 km/h (0 Bft) NO 45 10,4 C 14,6 C 0,0 km/h (0 Bft)
23.07.2013 06:50 15,8 C 78 % 1019,4 hPa 0,0 l/m 0,0 km/h (0 Bft) NO 45 12,0 C 16,7 C 0,0 km/h (0 Bft)
23.07.2013 06:55 17,3 C 74 % 1019,4 hPa 0,0 l/m 0,0 km/h (0 Bft) NO 45 12,6 C 17,6 C 0,0 km/h (0 Bft)
23.07.2013 07:00 18,5 C 69 % 1019,4 hPa 0,0 l/m 0,0 km/h (0 Bft) SO 135 12,7 C 18,7 C 0,0 km/h (0 Bft)
23.07.2013 07:05 19,4 C 69 % 1019,4 hPa 0,0 l/m 0,0 km/h (0 Bft) O-NO 67 13,6 C 19,8 C 0,0 km/h (0 Bft)
23.07.2013 07:10 21,3 C 67 % 1019,4 hPa 0,0 l/m 0,0 km/h (0 Bft) O 90 14,9 C 21,0 C 0,0 km/h (0 Bft)
23.07.2013 07:15 20,9 C 60 % 1019,4 hPa 0,0 l/m 0,0 km/h (0 Bft) NO 45 12,8 C 21,9 C 0,0 km/h (0 Bft)
23.07.2013 07:20 21,0 C 59 % 1019,4 hPa 0,0 l/m 0,0 km/h (0 Bft) O-NO 67 12,7 C 22,2 C 0,0 km/h (0 Bft)
23.07.2013 07:25 21,2 C 58 % 1019,5 hPa 0,0 l/m 0,0 km/h (0 Bft) O 90 12,6 C 22,5 C 0,0 km/h (0 Bft)
23.07.2013 07:30 21,5 C 57 % 1019,5 hPa 0,0 l/m 0,0 km/h (0 Bft) NO 45 12,6 C 23,1 C 0,0 km/h (0 Bft)
23.07.2013 07:35 21,8 C 58 % 1019,5 hPa 0,0 l/m 0,0 km/h (0 Bft) O-NO 67 13,2 C 23,3 C 0,0 km/h (0 Bft)
23.07.2013 07:40 22,9 C 57 % 1019,5 hPa 0,0 l/m 0,0 km/h (0 Bft) NO 45 13,9 C 23,8 C 0,0 km/h (0 Bft)
23.07.2013 07:45 23,5 C 55 % 1019,4 hPa 0,0 l/m 0,0 km/h (0 Bft) O 90 13,9 C 24,5 C 0,0 km/h (0 Bft)
23.07.2013 07:50 23,7 C 53 % 1019,4 hPa 0,0 l/m 0,0 km/h (0 Bft) NO 45 13,5 C 25,2 C 1,6 km/h (1 Bft)
23.07.2013 07:55 24,2 C 53 % 1019,4 hPa 0,0 l/m 0,2 km/h (0 Bft) O 90 14,0 C 25,3 C 0,0 km/h (0 Bft)
23.07.2013 08:00 25,2 C 51 % 1019,4 hPa 0,0 l/m 0,2 km/h (0 Bft) O 90 14,3 C 26,0 C 0,0 km/h (0 Bft)
23.07.2013 08:05 25,4 C 49 % 1019,7 hPa 0,0 l/m 0,2 km/h (0 Bft) O-SO 112 13,9 C 26,5 C 0,0 km/h (0 Bft)
23.07.2013 08:10 26,0 C 49 % 1019,7 hPa 0,0 l/m 0,2 km/h (0 Bft) O 90 14,4 C 27,1 C 0,0 km/h (0 Bft)
23.07.2013 08:15 26,4 C 48 % 1019,7 hPa 0,0 l/m 0,0 km/h (0 Bft) O-NO 67 14,5 C 27,7 C 0,0 km/h (0 Bft)
23.07.2013 08:20 27,0 C 48 % 1019,7 hPa 0,0 l/m 0,2 km/h (0 Bft) O 90 15,0 C 28,3 C 0,0 km/h (0 Bft)
23.07.2013 08:25 26,9 C 48 % 1019,7 hPa 0,0 l/m 0,2 km/h (0 Bft) O 90 14,9 C 28,7 C 0,0 km/h (0 Bft)
23.07.2013 08:30 27,3 C 47 % 1019,7 hPa 0,0 l/m 0,0 km/h (0 Bft) O 90 15,0 C 29,4 C 0,0 km/h (0 Bft)
23.07.2013 08:35 27,9 C 47 % 1019,7 hPa 0,0 l/m 0,0 km/h (0 Bft) O 90 15,5 C 29,7 C 0,0 km/h (0 Bft)
23.07.2013 08:40 27,9 C 47 % 1019,7 hPa 0,0 l/m 0,0 km/h (0 Bft) O 90 15,5 C 29,9 C 0,0 km/h (0 Bft)
23.07.2013 08:45 27,9 C 48 % 1019,8 hPa 0,0 l/m 0,0 km/h (0 Bft) O 90 15,9 C 30,1 C 0,0 km/h (0 Bft)
23.07.2013 08:50 28,3 C 46 % 1019,8 hPa 0,0 l/m 0,0 km/h (0 Bft) O-SO 112 15,6 C 30,9 C 0,0 km/h (0 Bft)
23.07.2013 08:55 28,6 C 44 % 1019,8 hPa 0,0 l/m 0,0 km/h (0 Bft) NO 45 15,1 C 31,2 C 0,0 km/h (0 Bft)
23.07.2013 09:00 28,6 C 43 % 1019,8 hPa 0,0 l/m 0,0 km/h (0 Bft) NO 45 14,8 C 31,2 C 0,0 km/h (0 Bft)
23.07.2013 09:05 29,6 C 45 % 1019,9 hPa 0,0 l/m 0,0 km/h (0 Bft) SO 135 16,4 C 31,5 C 0,0 km/h (0 Bft)
23.07.2013 09:10 29,9 C 43 % 1019,9 hPa 0,0 l/m 0,0 km/h (0 Bft) W-SW 247 15,9 C 31,8 C 0,0 km/h (0 Bft)
23.07.2013 09:15 29,9 C 41 % 1019,9 hPa 0,0 l/m 0,0 km/h (0 Bft) NO 45 15,2 C 32,1 C 1,8 km/h (1 Bft)
23.07.2013 09:20 29,9 C 41 % 1019,9 hPa 0,0 l/m 0,2 km/h (0 Bft) NO 45 15,2 C 32,1 C 1,8 km/h (1 Bft)
23.07.2013 09:25 30,1 C 39 % 1020,1 hPa 0,0 l/m 0,8 km/h (0 Bft) NO 45 14,6 C 31,9 C 4,0 km/h (1 Bft)
23.07.2013 09:30 30,5 C 41 % 1020,1 hPa 0,0 l/m 1,4 km/h (1 Bft) W-SW 247 15,7 C 31,5 C 4,2 km/h (1 Bft)
23.07.2013 09:35 30,0 C 39 % 1020,1 hPa 0,0 l/m 1,3 km/h (1 Bft) W-SW 247 14,5 C 31,5 C 2,6 km/h (1 Bft)
23.07.2013 09:40 30,3 C 38 % 1020,1 hPa 0,0 l/m 1,1 km/h (1 Bft) NO 45 14,4 C 31,7 C 1,8 km/h (1 Bft)
23.07.2013 09:45 30,1 C 37 % 1020,0 hPa 0,0 l/m 1,4 km/h (1 Bft) NO 45 13,8 C 31,8 C 0,0 km/h (0 Bft)
23.07.2013 09:50 30,1 C 35 % 1020,0 hPa 0,0 l/m 1,6 km/h (1 Bft) NO 45 12,9 C 31,7 C 0,0 km/h (0 Bft)
23.07.2013 09:55 29,8 C 39 % 1020,0 hPa 0,0 l/m 1,6 km/h (1 Bft) W-NW 292 14,3 C 31,8 C 3,9 km/h (1 Bft)
23.07.2013 10:00 29,9 C 37 % 1020,0 hPa 0,0 l/m 1,6 km/h (1 Bft) N-NW 337 13,6 C 31,6 C 0,0 km/h (0 Bft)
23.07.2013 10:05 30,6 C 35 % 1020,0 hPa 0,0 l/m 1,4 km/h (1 Bft) W-SW 247 13,4 C 32,1 C 1,8 km/h (1 Bft)
23.07.2013 10:10 30,4 C 35 % 1020,0 hPa 0,0 l/m 1,4 km/h (1 Bft) W-NW 292 13,2 C 32,4 C 5,5 km/h (1 Bft)
23.07.2013 10:15 29,8 C 37 % 1020,0 hPa 0,0 l/m 1,9 km/h (1 Bft) N-NW 337 13,5 C 32,0 C 3,4 km/h (1 Bft)
23.07.2013 10:20 30,0 C 33 % 1020,0 hPa 0,0 l/m 2,4 km/h (1 Bft) W-NW 292 11,9 C 31,8 C 5,6 km/h (1 Bft)
23.07.2013 10:25 30,4 C 31 % 1020,4 hPa 0,0 l/m 2,6 km/h (1 Bft) W-NW 292 11,3 C 31,6 C 3,1 km/h (1 Bft)
23.07.2013 10:30 30,1 C 29 % 1020,4 hPa 0,0 l/m 3,4 km/h (1 Bft) N-NW 337 10,1 C 31,2 C 6,4 km/h (2 Bft)
23.07.2013 10:35 29,6 C 28 % 1020,4 hPa 0,0 l/m 2,7 km/h (1 Bft) W-NW 292 9,1 C 31,5 C 1,8 km/h (1 Bft)
23.07.2013 10:40 29,7 C 28 % 1020,4 hPa 0,0 l/m 1,8 km/h (1 Bft) N 360 9,2 C 32,0 C 4,2 km/h (1 Bft)
23.07.2013 10:45 30,0 C 28 % 1020,4 hPa 0,0 l/m 2,3 km/h (1 Bft) W-SW 247 9,5 C 32,0 C 3,9 km/h (1 Bft)
23.07.2013 10:50 30,3 C 30 % 1020,4 hPa 0,0 l/m 2,4 km/h (1 Bft) N-NO 22 10,8 C 32,1 C 2,4 km/h (1 Bft)
23.07.2013 10:55 30,9 C 29 % 1020,4 hPa 0,0 l/m 1,8 km/h (1 Bft) O-SO 112 10,8 C 32,4 C 1,8 km/h (1 Bft)
23.07.2013 11:00 29,8 C 27 % 1020,4 hPa 0,0 l/m 2,4 km/h (1 Bft) W 270 8,8 C 32,4 C 6,8 km/h (2 Bft)
23.07.2013 11:05 30,2 C 27 % 1021,5 hPa 0,0 l/m 2,7 km/h (1 Bft) NO 45 9,1 C 32,1 C 1,9 km/h (1 Bft)
23.07.2013 11:10 30,9 C 26 % 1021,5 hPa 0,0 l/m 1,8 km/h (1 Bft) O-SO 112 9,1 C 32,7 C 2,7 km/h (1 Bft)
23.07.2013 11:15 30,7 C 26 % 1021,5 hPa 0,0 l/m 1,9 km/h (1 Bft) N 360 9,0 C 33,0 C 7,7 km/h (2 Bft)
23.07.2013 11:20 30,7 C 27 % 1021,5 hPa 0,0 l/m 3,1 km/h (1 Bft) S 180 9,5 C 32,3 C 2,6 km/h (1 Bft)
23.07.2013 11:25 31,0 C 27 % 1021,8 hPa 0,0 l/m 2,9 km/h (1 Bft) W-SW 247 9,8 C 32,5 C 3,4 km/h (1 Bft)
23.07.2013 11:30 31,0 C 26 % 1021,8 hPa 0,0 l/m 3,2 km/h (1 Bft) W-NW 292 9,2 C 32,0 C 3,9 km/h (1 Bft)
23.07.2013 11:35 31,3 C 26 % 1021,8 hPa 0,0 l/m 4,2 km/h (1 Bft) W-SW 247 9,5 C 31,7 C 5,6 km/h (1 Bft)
23.07.2013 11:40 31,3 C 25 % 1021,8 hPa 0,0 l/m 4,3 km/h (1 Bft) W-NW 292 8,9 C 31,5 C 7,7 km/h (2 Bft)
23.07.2013 11:45 31,1 C 25 % 1021,6 hPa 0,0 l/m 4,2 km/h (1 Bft) O-NO 67 8,7 C 31,1 C 5,5 km/h (1 Bft)
23.07.2013 11:50 31,2 C 24 % 1021,6 hPa 0,0 l/m 2,4 km/h (1 Bft) N-NW 337 8,2 C 31,9 C 4,7 km/h (1 Bft)
23.07.2013 11:55 30,9 C 25 % 1021,6 hPa 0,0 l/m 2,1 km/h (1 Bft) NO 45 8,6 C 32,0 C 3,5 km/h (1 Bft)
23.07.2013 12:00 30,9 C 25 % 1021,8 hPa 0,0 l/m 2,6 km/h (1 Bft) W 270 8,6 C 32,3 C 4,5 km/h (1 Bft)
23.07.2013 12:05 30,0 C 24 % 1021,8 hPa 0,0 l/m 2,3 km/h (1 Bft) NO 45 7,2 C 32,3 C 0,0 km/h (0 Bft)
23.07.2013 12:10 31,1 C 25 % 1021,8 hPa 0,0 l/m 2,6 km/h (1 Bft) S 180 8,7 C 32,6 C 3,1 km/h (1 Bft)
23.07.2013 12:15 31,4 C 25 % 1021,8 hPa 0,0 l/m 1,8 km/h (1 Bft) NW 315 9,0 C 32,9 C 0,0 km/h (0 Bft)
23.07.2013 12:20 31,3 C 25 % 1021,5 hPa 0,0 l/m 2,1 km/h (1 Bft) NW 315 8,9 C 33,0 C 5,0 km/h (1 Bft)
23.07.2013 12:25 30,3 C 27 % 1021,5 hPa 0,0 l/m 2,7 km/h (1 Bft) N-NO 22 9,2 C 32,8 C 7,1 km/h (2 Bft)
23.07.2013 12:30 30,7 C 27 % 1021,5 hPa 0,0 l/m 4,2 km/h (1 Bft) SO 135 9,5 C 32,1 C 7,9 km/h (2 Bft)
23.07.2013 12:35 30,1 C 25 % 1021,5 hPa 0,0 l/m 5,0 km/h (1 Bft) N 360 7,9 C 31,5 C 6,0 km/h (2 Bft)
23.07.2013 12:40 29,7 C 26 % 1021,2 hPa 0,0 l/m 5,0 km/h (1 Bft) NO 45 8,1 C 31,3 C 6,4 km/h (2 Bft)
23.07.2013 12:45 30,7 C 26 % 1021,2 hPa 0,0 l/m 3,9 km/h (1 Bft) W 270 9,0 C 31,4 C 4,5 km/h (1 Bft)
23.07.2013 12:50 30,7 C 26 % 1021,2 hPa 0,0 l/m 2,7 km/h (1 Bft) W 270 9,0 C 31,6 C 0,0 km/h (0 Bft)
23.07.2013 12:55 30,6 C 27 % 1021,2 hPa 0,0 l/m 3,2 km/h (1 Bft) W-NW 292 9,4 C 32,0 C 11,7 km/h (2 Bft)
23.07.2013 13:00 30,0 C 26 % 1021,1 hPa 0,0 l/m 3,9 km/h (1 Bft) NW 315 8,4 C 31,8 C 5,5 km/h (1 Bft)
23.07.2013 13:05 30,0 C 25 % 1021,1 hPa 0,0 l/m 4,5 km/h (1 Bft) NW 315 7,8 C 31,4 C 3,7 km/h (1 Bft)
23.07.2013 13:10 30,3 C 28 % 1021,1 hPa 0,0 l/m 3,5 km/h (1 Bft) W-SW 247 9,7 C 31,8 C 2,9 km/h (1 Bft)
23.07.2013 13:15 29,5 C 27 % 1021,1 hPa 0,0 l/m 4,2 km/h (1 Bft) N-NO 22 8,5 C 31,9 C 7,2 km/h (2 Bft)
23.07.2013 13:20 29,9 C 28 % 1020,9 hPa 0,0 l/m 5,0 km/h (1 Bft) NW 315 9,4 C 31,6 C 5,0 km/h (1 Bft)
23.07.2013 13:25 30,4 C 27 % 1020,9 hPa 0,0 l/m 4,3 km/h (1 Bft) W-NW 292 9,3 C 31,9 C 8,0 km/h (2 Bft)
23.07.2013 13:30 30,2 C 28 % 1020,9 hPa 0,0 l/m 3,9 km/h (1 Bft) W 270 9,6 C 31,6 C 6,9 km/h (2 Bft)
23.07.2013 13:35 30,1 C 28 % 1020,9 hPa 0,0 l/m 4,2 km/h (1 Bft) N 360 9,6 C 31,5 C 6,4 km/h (2 Bft)
23.07.2013 13:40 30,0 C 27 % 1020,5 hPa 0,0 l/m 3,9 km/h (1 Bft) NW 315 8,9 C 31,6 C 4,8 km/h (1 Bft)
23.07.2013 13:45 29,8 C 27 % 1020,5 hPa 0,0 l/m 3,1 km/h (1 Bft) O 90 8,8 C 31,9 C 1,6 km/h (1 Bft)
23.07.2013 13:50 30,4 C 27 % 1020,5 hPa 0,0 l/m 3,5 km/h (1 Bft) W 270 9,3 C 32,3 C 3,2 km/h (1 Bft)
23.07.2013 13:55 30,6 C 29 % 1020,5 hPa 0,0 l/m 3,1 km/h (1 Bft) W-SW 247 10,5 C 32,4 C 2,4 km/h (1 Bft)
23.07.2013 14:00 30,5 C 27 % 1020,4 hPa 0,0 l/m 2,4 km/h (1 Bft) W-NW 292 9,4 C 32,9 C 3,7 km/h (1 Bft)
23.07.2013 14:05 30,5 C 27 % 1020,4 hPa 0,0 l/m 3,7 km/h (1 Bft) S 180 9,4 C 32,7 C 6,6 km/h (2 Bft)
23.07.2013 14:10 30,2 C 27 % 1020,4 hPa 0,0 l/m 4,5 km/h (1 Bft) W 270 9,1 C 32,6 C 7,9 km/h (2 Bft)
23.07.2013 14:15 30,0 C 27 % 1020,4 hPa 0,0 l/m 5,0 km/h (1 Bft) N 360 8,9 C 32,2 C 6,9 km/h (2 Bft)
23.07.2013 14:20 29,9 C 27 % 1020,2 hPa 0,0 l/m 5,1 km/h (1 Bft) SW 225 8,9 C 32,1 C 4,7 km/h (1 Bft)
23.07.2013 14:25 30,7 C 28 % 1020,2 hPa 0,0 l/m 4,7 km/h (1 Bft) SW 225 10,1 C 32,1 C 5,1 km/h (1 Bft)
23.07.2013 14:30 30,6 C 27 % 1020,2 hPa 0,0 l/m 4,7 km/h (1 Bft) S 180 9,4 C 32,1 C 4,8 km/h (1 Bft)
23.07.2013 14:35 30,9 C 27 % 1020,2 hPa 0,0 l/m 5,0 km/h (1 Bft) W 270 9,7 C 32,0 C 4,3 km/h (1 Bft)
23.07.2013 14:40 31,1 C 28 % 1019,9 hPa 0,0 l/m 4,7 km/h (1 Bft) S 180 10,4 C 32,1 C 5,8 km/h (2 Bft)
23.07.2013 14:45 30,7 C 26 % 1019,9 hPa 0,0 l/m 4,5 km/h (1 Bft) W-SW 247 9,0 C 32,3 C 4,3 km/h (1 Bft)
23.07.2013 14:50 31,2 C 26 % 1019,9 hPa 0,0 l/m 4,7 km/h (1 Bft) W 270 9,4 C 32,4 C 6,9 km/h (2 Bft)
23.07.2013 14:55 30,5 C 26 % 1019,9 hPa 0,0 l/m 4,7 km/h (1 Bft) N-NW 337 8,8 C 32,3 C 5,5 km/h (1 Bft)
23.07.2013 15:00 30,5 C 26 % 1019,9 hPa 0,0 l/m 5,0 km/h (1 Bft) W-NW 292 8,8 C 32,6 C 9,0 km/h (2 Bft)
23.07.2013 15:05 30,5 C 25 % 1019,9 hPa 0,0 l/m 5,0 km/h (1 Bft) N-NW 337 8,2 C 32,2 C 5,5 km/h (1 Bft)
23.07.2013 15:10 30,4 C 25 % 1019,9 hPa 0,0 l/m 4,5 km/h (1 Bft) N-NW 337 8,1 C 32,7 C 9,2 km/h (2 Bft)
23.07.2013 15:15 30,5 C 27 % 1019,9 hPa 0,0 l/m 4,0 km/h (1 Bft) S 180 9,4 C 32,8 C 5,6 km/h (1 Bft)
23.07.2013 15:20 31,2 C 26 % 1019,9 hPa 0,0 l/m 3,7 km/h (1 Bft) O-NO 67 9,4 C 33,0 C 0,0 km/h (0 Bft)
23.07.2013 15:25 31,2 C 25 % 1019,9 hPa 0,0 l/m 1,9 km/h (1 Bft) W-NW 292 8,8 C 34,4 C 3,7 km/h (1 Bft)
23.07.2013 15:30 31,2 C 25 % 1019,9 hPa 0,0 l/m 2,1 km/h (1 Bft) O-SO 112 8,8 C 34,3 C 2,7 km/h (1 Bft)
23.07.2013 15:35 30,2 C 26 % 1019,9 hPa 0,0 l/m 3,9 km/h (1 Bft) W-NW 292 8,5 C 34,4 C 3,9 km/h (1 Bft)
23.07.2013 15:40 30,2 C 27 % 1019,7 hPa 0,0 l/m 3,9 km/h (1 Bft) N-NW 337 9,1 C 34,2 C 4,5 km/h (1 Bft)
23.07.2013 15:45 29,9 C 27 % 1019,7 hPa 0,0 l/m 4,8 km/h (1 Bft) W-NW 292 8,9 C 33,3 C 5,1 km/h (1 Bft)
23.07.2013 15:50 30,1 C 26 % 1019,7 hPa 0,0 l/m 4,8 km/h (1 Bft) W-NW 292 8,5 C 32,8 C 10,0 km/h (2 Bft)
23.07.2013 15:55 30,3 C 27 % 1019,7 hPa 0,0 l/m 3,9 km/h (1 Bft) N-NO 22 9,2 C 32,8 C 4,8 km/h (1 Bft)
23.07.2013 16:00 30,9 C 27 % 1019,5 hPa 0,0 l/m 3,2 km/h (1 Bft) N 360 9,7 C 33,3 C 2,3 km/h (1 Bft)
23.07.2013 16:05 30,1 C 26 % 1019,5 hPa 0,0 l/m 3,2 km/h (1 Bft) W-SW 247 8,5 C 33,5 C 3,7 km/h (1 Bft)
23.07.2013 16:10 29,9 C 26 % 1019,5 hPa 0,0 l/m 3,5 km/h (1 Bft) W-NW 292 8,3 C 33,1 C 4,5 km/h (1 Bft)
23.07.2013 16:15 30,0 C 26 % 1019,5 hPa 0,0 l/m 2,4 km/h (1 Bft) W-NW 292 8,4 C 33,0 C 2,4 km/h (1 Bft)
23.07.2013 16:20 29,8 C 27 % 1019,4 hPa 0,0 l/m 2,1 km/h (1 Bft) W-NW 292 8,8 C 33,4 C 3,9 km/h (1 Bft)
23.07.2013 16:25 29,1 C 28 % 1019,4 hPa 0,0 l/m 3,1 km/h (1 Bft) N-NO 22 8,7 C 33,1 C 7,4 km/h (2 Bft)
23.07.2013 16:30 28,8 C 27 % 1019,4 hPa 0,0 l/m 4,2 km/h (1 Bft) NW 315 7,9 C 32,4 C 6,6 km/h (2 Bft)
23.07.2013 16:35 28,4 C 27 % 1019,4 hPa 0,0 l/m 5,0 km/h (1 Bft) N-NW 337 7,6 C 31,5 C 3,4 km/h (1 Bft)
23.07.2013 16:40 28,8 C 29 % 1019,3 hPa 0,0 l/m 4,3 km/h (1 Bft) W 270 9,0 C 31,5 C 6,3 km/h (2 Bft)
23.07.2013 16:45 28,3 C 29 % 1019,3 hPa 0,0 l/m 3,4 km/h (1 Bft) N-NW 337 8,5 C 31,4 C 0,0 km/h (0 Bft)
23.07.2013 16:50 28,4 C 28 % 1019,3 hPa 0,0 l/m 3,4 km/h (1 Bft) W-SW 247 8,1 C 31,3 C 5,3 km/h (1 Bft)
23.07.2013 16:55 28,2 C 29 % 1019,3 hPa 0,0 l/m 3,4 km/h (1 Bft) W 270 8,5 C 30,7 C 4,2 km/h (1 Bft)
23.07.2013 17:00 28,2 C 30 % 1019,1 hPa 0,0 l/m 2,7 km/h (1 Bft) W-SW 247 9,0 C 30,7 C 2,6 km/h (1 Bft)
23.07.2013 17:05 28,1 C 29 % 1019,1 hPa 0,0 l/m 1,9 km/h (1 Bft) W 270 8,4 C 31,0 C 3,1 km/h (1 Bft)
23.07.2013 17:10 28,3 C 28 % 1019,1 hPa 0,0 l/m 2,7 km/h (1 Bft) W-SW 247 8,0 C 31,3 C 5,6 km/h (1 Bft)
23.07.2013 17:15 28,3 C 29 % 1019,1 hPa 0,0 l/m 3,2 km/h (1 Bft) W-NW 292 8,5 C 31,5 C 1,6 km/h (1 Bft)
23.07.2013 17:20 28,0 C 29 % 1019,3 hPa 0,0 l/m 3,1 km/h (1 Bft) W-NW 292 8,3 C 31,7 C 5,1 km/h (1 Bft)
23.07.2013 17:25 27,7 C 28 % 1019,3 hPa 0,0 l/m 3,4 km/h (1 Bft) NW 315 7,5 C 31,5 C 6,1 km/h (2 Bft)
23.07.2013 17:30 27,7 C 30 % 1019,3 hPa 0,0 l/m 3,5 km/h (1 Bft) W-NW 292 8,5 C 31,5 C 2,3 km/h (1 Bft)
23.07.2013 17:35 27,8 C 30 % 1019,3 hPa 0,0 l/m 2,7 km/h (1 Bft) S-SW 202 8,6 C 31,9 C 2,9 km/h (1 Bft)
23.07.2013 17:40 27,8 C 29 % 1019,4 hPa 0,0 l/m 3,5 km/h (1 Bft) W-NW 292 8,1 C 31,8 C 5,8 km/h (2 Bft)
23.07.2013 17:45 27,8 C 29 % 1019,4 hPa 0,0 l/m 4,5 km/h (1 Bft) W-NW 292 8,1 C 32,1 C 3,5 km/h (1 Bft)
23.07.2013 17:50 27,6 C 29 % 1019,4 hPa 0,0 l/m 3,9 km/h (1 Bft) W 270 7,9 C 32,2 C 4,2 km/h (1 Bft)
23.07.2013 17:55 27,2 C 29 % 1019,4 hPa 0,0 l/m 3,2 km/h (1 Bft) S-SW 202 7,6 C 31,7 C 5,5 km/h (1 Bft)
23.07.2013 18:00 26,8 C 30 % 1019,1 hPa 0,0 l/m 3,1 km/h (1 Bft) W-SW 247 7,8 C 31,1 C 5,3 km/h (1 Bft)
23.07.2013 18:05 26,6 C 30 % 1019,1 hPa 0,0 l/m 2,6 km/h (1 Bft) W-NW 292 7,6 C 30,3 C 1,8 km/h (1 Bft)
23.07.2013 18:10 26,7 C 31 % 1019,1 hPa 0,0 l/m 2,3 km/h (1 Bft) W-SW 247 8,2 C 30,9 C 3,4 km/h (1 Bft)
23.07.2013 18:15 27,0 C 31 % 1019,1 hPa 0,0 l/m 2,1 km/h (1 Bft) S 180 8,4 C 32,1 C 2,6 km/h (1 Bft)
23.07.2013 18:20 27,0 C 32 % 1018,9 hPa 0,0 l/m 2,7 km/h (1 Bft) S-SW 202 8,9 C 32,4 C 3,1 km/h (1 Bft)
23.07.2013 18:26 27,0 C 32 % 1018,9 hPa 0,0 l/m 2,7 km/h (1 Bft) S-SW 202 8,9 C 32,4 C 3,1 km/h (1 Bft)
23.07.2013 18:30 27,0 C 31 % 1018,9 hPa 0,0 l/m 2,4 km/h (1 Bft) W-NW 292 8,4 C 33,5 C 5,8 km/h (2 Bft)
23.07.2013 18:35 26,9 C 32 % 1018,9 hPa 0,0 l/m 2,3 km/h (1 Bft) W-NW 292 8,8 C 33,5 C 5,8 km/h (2 Bft)
23.07.2013 18:40 26,9 C 33 % 1018,9 hPa 0,0 l/m 2,1 km/h (1 Bft) W 270 9,3 C 33,3 C 0,0 km/h (0 Bft)
23.07.2013 18:45 27,0 C 32 % 1020,7 hPa 0,0 l/m 1,8 km/h (1 Bft) W-SW 247 8,9 C 33,5 C 3,1 km/h (1 Bft)
23.07.2013 18:50 26,9 C 33 % 1020,7 hPa 0,0 l/m 1,4 km/h (1 Bft) W-SW 247 9,3 C 32,6 C 3,2 km/h (1 Bft)
23.07.2013 18:55 26,7 C 32 % 1020,7 hPa 0,0 l/m 1,9 km/h (1 Bft) SW 225 8,6 C 31,6 C 3,7 km/h (1 Bft)
23.07.2013 19:00 26,2 C 34 % 1020,7 hPa 0,0 l/m 1,4 km/h (1 Bft) O 90 9,1 C 31,0 C 0,0 km/h (0 Bft)
23.07.2013 19:05 25,9 C 36 % 1019,3 hPa 0,0 l/m 0,8 km/h (0 Bft) O 90 9,7 C 30,9 C 0,0 km/h (0 Bft)
23.07.2013 19:10 25,7 C 36 % 1019,3 hPa 0,0 l/m 0,2 km/h (0 Bft) O-SO 112 9,5 C 31,1 C 0,0 km/h (0 Bft)
23.07.2013 19:15 25,6 C 37 % 1019,3 hPa 0,0 l/m 0,2 km/h (0 Bft) SO 135 9,8 C 31,0 C 0,0 km/h (0 Bft)
23.07.2013 19:20 25,2 C 37 % 1019,3 hPa 0,0 l/m 0,5 km/h (0 Bft) NO 45 9,5 C 30,3 C 2,3 km/h (1 Bft)
23.07.2013 19:25 25,2 C 36 % 1018,9 hPa 0,0 l/m 0,5 km/h (0 Bft) O-NO 67 9,1 C 29,8 C 0,0 km/h (0 Bft)
23.07.2013 19:30 25,0 C 37 % 1018,9 hPa 0,0 l/m 0,8 km/h (0 Bft) O-NO 67 9,3 C 29,4 C 2,7 km/h (1 Bft)
23.07.2013 19:35 24,7 C 40 % 1018,9 hPa 0,0 l/m 1,3 km/h (1 Bft) N-NO 22 10,2 C 28,6 C 2,7 km/h (1 Bft)
23.07.2013 19:40 24,6 C 42 % 1018,9 hPa 0,0 l/m 2,1 km/h (1 Bft) O 90 10,8 C 27,4 C 2,3 km/h (1 Bft)
23.07.2013 19:45 24,6 C 43 % 1018,4 hPa 0,0 l/m 2,1 km/h (1 Bft) O 90 11,2 C 27,2 C 1,9 km/h (1 Bft)
23.07.2013 19:50 24,6 C 45 % 1018,4 hPa 0,0 l/m 2,3 km/h (1 Bft) O-NO 67 11,9 C 26,8 C 3,1 km/h (1 Bft)
23.07.2013 19:55 24,3 C 47 % 1018,4 hPa 0,0 l/m 2,7 km/h (1 Bft) O-NO 67 12,3 C 26,2 C 3,4 km/h (1 Bft)
23.07.2013 20:00 23,9 C 47 % 1018,4 hPa 0,0 l/m 2,9 km/h (1 Bft) O-NO 67 11,9 C 25,5 C 3,1 km/h (1 Bft)
23.07.2013 20:05 23,6 C 48 % 1018,6 hPa 0,0 l/m 2,6 km/h (1 Bft) O 90 11,9 C 25,0 C 1,9 km/h (1 Bft)
23.07.2013 20:10 23,3 C 49 % 1018,6 hPa 0,0 l/m 2,3 km/h (1 Bft) NO 45 12,0 C 24,4 C 2,7 km/h (1 Bft)
23.07.2013 20:15 23,1 C 50 % 1018,6 hPa 0,0 l/m 2,1 km/h (1 Bft) O 90 12,1 C 24,2 C 2,6 km/h (1 Bft)
23.07.2013 20:20 22,9 C 52 % 1018,6 hPa 0,0 l/m 2,3 km/h (1 Bft) O-NO 67 12,5 C 23,7 C 3,1 km/h (1 Bft)
23.07.2013 20:25 22,9 C 51 % 1018,6 hPa 0,0 l/m 2,6 km/h (1 Bft) O-NO 67 12,2 C 23,5 C 2,7 km/h (1 Bft)
23.07.2013 20:30 22,5 C 54 % 1018,6 hPa 0,0 l/m 2,3 km/h (1 Bft) O 90 12,7 C 23,3 C 1,6 km/h (1 Bft)
23.07.2013 20:35 22,0 C 55 % 1018,6 hPa 0,0 l/m 1,1 km/h (1 Bft) O 90 12,5 C 23,0 C 1,8 km/h (1 Bft)
23.07.2013 20:40 22,1 C 55 % 1018,6 hPa 0,0 l/m 0,5 km/h (0 Bft) S 180 12,6 C 22,7 C 0,0 km/h (0 Bft)
23.07.2013 20:45 21,9 C 56 % 1019,0 hPa 0,0 l/m 0,6 km/h (0 Bft) O 90 12,7 C 22,5 C 2,3 km/h (1 Bft)
23.07.2013 20:50 22,4 C 54 % 1019,0 hPa 0,0 l/m 1,0 km/h (0 Bft) S 180 12,6 C 22,6 C 2,1 km/h (1 Bft)
23.07.2013 20:55 22,4 C 54 % 1019,0 hPa 0,0 l/m 1,6 km/h (1 Bft) SO 135 12,6 C 22,8 C 0,0 km/h (0 Bft)
23.07.2013 21:00 22,2 C 54 % 1019,0 hPa 0,0 l/m 1,0 km/h (0 Bft) W-SW 247 12,4 C 22,8 C 3,4 km/h (1 Bft)
23.07.2013 21:05 22,1 C 54 % 1019,1 hPa 0,0 l/m 1,0 km/h (0 Bft) W-SW 247 12,3 C 22,8 C 1,9 km/h (1 Bft)
23.07.2013 21:10 22,1 C 54 % 1019,1 hPa 0,0 l/m 1,8 km/h (1 Bft) O 90 12,3 C 22,7 C 2,7 km/h (1 Bft)
23.07.2013 21:15 22,2 C 54 % 1019,1 hPa 0,0 l/m 1,8 km/h (1 Bft) S 180 12,4 C 22,5 C 2,7 km/h (1 Bft)
23.07.2013 21:20 21,7 C 55 % 1019,1 hPa 0,0 l/m 1,6 km/h (1 Bft) SO 135 12,3 C 22,4 C 0,0 km/h (0 Bft)
23.07.2013 21:25 21,5 C 56 % 1019,1 hPa 0,0 l/m 1,3 km/h (1 Bft) O-SO 112 12,3 C 22,1 C 3,4 km/h (1 Bft)
23.07.2013 21:30 21,6 C 56 % 1019,1 hPa 0,0 l/m 2,1 km/h (1 Bft) O 90 12,4 C 21,9 C 2,9 km/h (1 Bft)
23.07.2013 21:35 21,5 C 58 % 1019,1 hPa 0,0 l/m 2,9 km/h (1 Bft) O-NO 67 12,9 C 21,8 C 3,9 km/h (1 Bft)
23.07.2013 21:40 21,2 C 58 % 1019,1 hPa 0,0 l/m 3,4 km/h (1 Bft) O-NO 67 12,6 C 21,6 C 4,8 km/h (1 Bft)
23.07.2013 21:45 21,2 C 58 % 1019,2 hPa 0,0 l/m 3,7 km/h (1 Bft) O-NO 67 12,6 C 21,4 C 5,3 km/h (1 Bft)
23.07.2013 21:50 21,3 C 56 % 1019,2 hPa 0,0 l/m 3,4 km/h (1 Bft) NO 45 12,2 C 21,2 C 2,3 km/h (1 Bft)
23.07.2013 21:55 21,2 C 56 % 1019,2 hPa 0,0 l/m 2,1 km/h (1 Bft) O-SO 112 12,1 C 21,1 C 0,0 km/h (0 Bft)
23.07.2013 22:00 21,2 C 56 % 1019,2 hPa 0,0 l/m 1,0 km/h (0 Bft) S-SO 157 12,1 C 20,8 C 1,8 km/h (1 Bft)
23.07.2013 22:05 21,0 C 56 % 1019,6 hPa 0,0 l/m 1,0 km/h (0 Bft) O-SO 112 11,9 C 20,8 C 1,8 km/h (1 Bft)
23.07.2013 22:10 21,0 C 56 % 1019,6 hPa 0,0 l/m 1,0 km/h (0 Bft) O-SO 112 11,9 C 20,8 C 2,4 km/h (1 Bft)
23.07.2013 22:15 20,7 C 57 % 1019,6 hPa 0,0 l/m 0,8 km/h (0 Bft) O-SO 112 11,9 C 20,7 C 0,0 km/h (0 Bft)
23.07.2013 22:20 19,9 C 59 % 1019,6 hPa 0,0 l/m 0,3 km/h (0 Bft) S-SO 157 11,6 C 20,4 C 0,0 km/h (0 Bft)
23.07.2013 22:25 19,9 C 59 % 1019,9 hPa 0,0 l/m 0,3 km/h (0 Bft) O-NO 67 11,6 C 20,2 C 2,7 km/h (1 Bft)
23.07.2013 22:30 20,4 C 58 % 1019,9 hPa 0,0 l/m 1,6 km/h (1 Bft) O-NO 67 11,9 C 20,1 C 3,1 km/h (1 Bft)
23.07.2013 22:35 20,4 C 59 % 1019,9 hPa 0,0 l/m 3,4 km/h (1 Bft) O 90 12,1 C 20,1 C 5,8 km/h (2 Bft)
23.07.2013 22:40 20,1 C 60 % 1019,9 hPa 0,0 l/m 4,7 km/h (1 Bft) O-NO 67 12,1 C 20,1 C 4,7 km/h (1 Bft)
23.07.2013 22:45 20,0 C 60 % 1020,0 hPa 0,0 l/m 4,7 km/h (1 Bft) O-NO 67 12,0 C 20,1 C 3,7 km/h (1 Bft)
23.07.2013 22:50 19,6 C 62 % 1020,0 hPa 0,0 l/m 2,6 km/h (1 Bft) NO 45 12,1 C 19,9 C 0,0 km/h (0 Bft)
23.07.2013 22:55 19,8 C 62 % 1020,0 hPa 0,0 l/m 1,4 km/h (1 Bft) O-NO 67 12,3 C 19,6 C 2,4 km/h (1 Bft)
23.07.2013 23:00 19,8 C 63 % 1020,0 hPa 0,0 l/m 2,1 km/h (1 Bft) O 90 12,5 C 19,5 C 3,5 km/h (1 Bft)
23.07.2013 23:05 19,5 C 63 % 1020,1 hPa 0,0 l/m 2,1 km/h (1 Bft) NO 45 12,3 C 19,4 C 0,0 km/h (0 Bft)
23.07.2013 23:10 19,5 C 63 % 1020,1 hPa 0,0 l/m 1,6 km/h (1 Bft) O 90 12,3 C 19,4 C 2,6 km/h (1 Bft)
23.07.2013 23:15 19,7 C 62 % 1020,1 hPa 0,0 l/m 1,8 km/h (1 Bft) O 90 12,2 C 19,5 C 2,6 km/h (1 Bft)
23.07.2013 23:20 19,7 C 61 % 1020,1 hPa 0,0 l/m 2,1 km/h (1 Bft) O-NO 67 12,0 C 19,4 C 3,2 km/h (1 Bft)
23.07.2013 23:25 19,6 C 63 % 1019,6 hPa 0,0 l/m 2,4 km/h (1 Bft) O 90 12,4 C 19,3 C 2,7 km/h (1 Bft)
23.07.2013 23:30 19,1 C 65 % 1019,6 hPa 0,0 l/m 1,8 km/h (1 Bft) W-SW 247 12,4 C 19,1 C 0,0 km/h (0 Bft)
23.07.2013 23:35 18,6 C 68 % 1019,6 hPa 0,0 l/m 0,8 km/h (0 Bft) W-SW 247 12,6 C 18,4 C 0,0 km/h (0 Bft)
23.07.2013 23:40 18,4 C 70 % 1019,6 hPa 0,0 l/m 1,3 km/h (1 Bft) O-NO 67 12,8 C 17,9 C 3,2 km/h (1 Bft)
23.07.2013 23:45 18,5 C 69 % 1019,9 hPa 0,0 l/m 1,6 km/h (1 Bft) O-NO 67 12,7 C 17,8 C 2,6 km/h (1 Bft)
23.07.2013 23:50 18,7 C 68 % 1019,9 hPa 0,0 l/m 1,1 km/h (1 Bft) S 180 12,7 C 18,0 C 2,3 km/h (1 Bft)
23.07.2013 23:55 18,9 C 68 % 1019,9 hPa 0,0 l/m 1,6 km/h (1 Bft) S 180 12,9 C 18,2 C 5,5 km/h (1 Bft)
_ Min-Zeit 06:10 12:05 20:00 - 09:15 - - 12:05 06:00 23:35
Minimum _ 11,8 C 24 % 1018,4 hPa - 0,0 km/h (0 Bft) - - 7,2 C 11,3 C 0,0 km/h (0 Bft)
_ Max-Zeit 12:15 06:25 12:15 23:55 14:20 - - 09:05 15:35 12:55
Maximum _ 31,4 C 84 % 1021,8 hPa 0,0 l/m 5,1 km/h
SW (1 Bft)
- - 16,4 C 34,4 C 11,7 km/h
W-NW (2 Bft)
Durchschnitt _ 22,8 C 51 % 1019,9 hPa #0,0 l/m 1,7 km/h (1 Bft) W-NW - 10,5 C 24,0 C 2,2 km/h (1 Bft)